Time,TemperatureF,DewpointF,PressureIn,WindDirection,WindDirectionDegrees,WindSpeedMPH,WindSpeedGustMPH,Humidity,HourlyPrecipIn,Conditions,Clouds,dailyrainin,SoftwareType,DateUTC
2013-03-10 00:10:00,34.1,27.0,30.31,East,91,2.0,4.0,74,0.00,,,0.00,weatherlink.com 1.10,2013-03-10 08:10:00,
2013-03-10 00:25:00,32.3,26.0,30.32,ENE,64,2.0,4.0,78,0.00,,,0.00,weatherlink.com 1.10,2013-03-10 08:25:00,
2013-03-10 00:40:00,30.2,26.0,30.33,NE,46,1.0,5.0,84,0.00,,,0.00,weatherlink.com 1.10,2013-03-10 08:40:00,
2013-03-10 00:56:00,30.0,27.0,30.33,ENE,72,2.0,3.0,87,0.00,,,0.00,weatherlink.com 1.10,2013-03-10 08:56:00,
2013-03-10 01:11:00,29.4,26.0,30.34,East,86,3.0,4.0,86,0.00,,,0.00,weatherlink.com 1.10,2013-03-10 09:11:00,
2013-03-10 01:26:00,29.5,26.0,30.34,SE,134,0.0,4.0,86,0.00,,,0.00,weatherlink.com 1.10,2013-03-10 09:26:00,
2013-03-10 01:41:00,29.9,26.0,30.34,NE,37,1.0,2.0,85,0.00,,,0.00,weatherlink.com 1.10,2013-03-10 09:41:00,
2013-03-10 01:56:00,33.3,27.0,30.34,NE,53,1.0,3.0,76,0.00,,,0.00,weatherlink.com 1.10,2013-03-10 09:56:00,
2013-03-10 03:11:00,32.9,27.0,30.34,NE,49,1.0,4.0,78,0.00,,,0.00,weatherlink.com 1.10,2013-03-10 10:11:00,
2013-03-10 03:26:00,34.2,27.0,30.34,ENE,78,2.0,5.0,75,0.00,,,0.00,weatherlink.com 1.10,2013-03-10 10:26:00,
2013-03-10 03:41:00,36.1,26.0,30.34,East,80,1.0,8.0,68,0.00,,,0.00,weatherlink.com 1.10,2013-03-10 10:41:00,
2013-03-10 03:56:00,36.4,26.0,30.34,ENE,70,4.0,4.0,67,0.00,,,0.00,weatherlink.com 1.10,2013-03-10 10:56:00,
2013-03-10 04:11:00,32.5,25.0,30.34,ENE,71,2.0,3.0,75,0.00,,,0.00,weatherlink.com 1.10,2013-03-10 11:11:00,
2013-03-10 04:26:00,30.0,25.0,30.34,NE,55,3.0,3.0,82,0.00,,,0.00,weatherlink.com 1.10,2013-03-10 11:26:00,
2013-03-10 04:41:00,30.9,26.0,30.34,NNW,347,1.0,4.0,81,0.00,,,0.00,weatherlink.com 1.10,2013-03-10 11:41:00,
2013-03-10 04:56:00,34.0,25.0,30.34,NE,56,0.0,3.0,70,0.00,,,0.00,weatherlink.com 1.10,2013-03-10 11:56:00,
2013-03-10 05:11:00,33.7,26.0,30.35,NE,35,1.0,3.0,72,0.00,,,0.00,weatherlink.com 1.10,2013-03-10 12:11:00,
2013-03-10 05:26:00,33.2,25.0,30.35,ENE,72,0.0,4.0,72,0.00,,,0.00,weatherlink.com 1.10,2013-03-10 12:26:00,
2013-03-10 05:41:00,35.4,23.0,30.35,NW,313,0.0,4.0,62,0.00,,,0.00,weatherlink.com 1.10,2013-03-10 12:41:00,
2013-03-10 05:56:00,34.8,24.0,30.36,ENE,67,2.0,2.0,65,0.00,,,0.00,weatherlink.com 1.10,2013-03-10 12:56:00,
2013-03-10 06:11:00,35.5,24.0,30.36,ENE,63,1.0,2.0,64,0.00,,,0.00,weatherlink.com 1.10,2013-03-10 13:11:00,
2013-03-10 06:26:00,34.9,25.0,30.36,ENE,63,3.0,3.0,66,0.00,,,0.00,weatherlink.com 1.10,2013-03-10 13:26:00,
2013-03-10 06:41:00,34.3,24.0,30.37,ENE,71,0.0,1.0,66,0.00,,,0.00,weatherlink.com 1.10,2013-03-10 13:41:00,
2013-03-10 06:56:00,33.7,23.0,30.38,NW,312,2.0,5.0,66,0.00,,,0.00,weatherlink.com 1.10,2013-03-10 13:56:00,
2013-03-10 07:11:00,35.0,23.0,30.38,WNW,303,1.0,3.0,62,0.00,,,0.00,weatherlink.com 1.10,2013-03-10 14:11:00,
2013-03-10 07:26:00,35.1,23.0,30.39,NNW,343,5.0,7.0,61,0.00,,,0.00,weatherlink.com 1.10,2013-03-10 14:26:00,
2013-03-10 07:42:00,35.9,23.0,30.39,NNE,22,1.0,5.0,59,0.00,,,0.00,weatherlink.com 1.10,2013-03-10 14:42:00,
2013-03-10 07:56:00,36.5,23.0,30.39,North,1,2.0,8.0,58,0.00,,,0.00,weatherlink.com 1.10,2013-03-10 14:56:00,
2013-03-10 08:11:00,36.2,25.0,30.39,NE,54,3.0,6.0,63,0.00,,,0.00,weatherlink.com 1.10,2013-03-10 15:11:00,
2013-03-10 08:26:00,40.0,24.0,30.39,NNE,20,4.0,6.0,53,0.00,,,0.00,weatherlink.com 1.10,2013-03-10 15:26:00,
2013-03-10 08:41:00,44.2,22.0,30.39,North,352,3.0,10.0,41,0.00,,,0.00,weatherlink.com 1.10,2013-03-10 15:41:00,
2013-03-10 08:56:00,47.1,21.0,30.39,NW,316,6.0,13.0,35,0.00,,,0.00,weatherlink.com 1.10,2013-03-10 15:56:00,
2013-03-10 09:11:00,48.1,19.0,30.40,WNW,288,5.0,11.0,32,0.00,,,0.00,weatherlink.com 1.10,2013-03-10 16:11:00,
2013-03-10 09:27:00,48.6,19.0,30.41,South,177,2.0,12.0,31,0.00,,,0.00,weatherlink.com 1.10,2013-03-10 16:27:00,
2013-03-10 09:42:00,49.1,19.0,30.41,North,353,5.0,11.0,31,0.00,,,0.00,weatherlink.com 1.10,2013-03-10 16:42:00,
2013-03-10 09:57:00,49.8,19.0,30.41,NNW,336,6.0,15.0,30,0.00,,,0.00,weatherlink.com 1.10,2013-03-10 16:57:00,
2013-03-10 10:12:00,50.3,18.0,30.42,NW,323,6.0,13.0,28,0.00,,,0.00,weatherlink.com 1.10,2013-03-10 17:12:00,
2013-03-10 10:27:00,51.1,20.0,30.41,North,4,5.0,13.0,30,0.00,,,0.00,weatherlink.com 1.10,2013-03-10 17:27:00,
2013-03-10 10:42:00,50.6,20.0,30.40,NNE,13,9.0,16.0,30,0.00,,,0.00,weatherlink.com 1.10,2013-03-10 17:42:00,
2013-03-10 10:57:00,51.2,19.0,30.40,NW,325,5.0,15.0,28,0.00,,,0.00,weatherlink.com 1.10,2013-03-10 17:57:00,
2013-03-10 11:12:00,51.3,18.0,30.41,North,5,9.0,13.0,27,0.00,,,0.00,weatherlink.com 1.10,2013-03-10 18:12:00,
2013-03-10 11:27:00,51.6,20.0,30.40,North,5,8.0,14.0,29,0.00,,,0.00,weatherlink.com 1.10,2013-03-10 18:27:00,
2013-03-10 11:42:00,52.6,20.0,30.39,NW,305,6.0,12.0,28,0.00,,,0.00,weatherlink.com 1.10,2013-03-10 18:42:00,
2013-03-10 11:57:00,53.7,19.0,30.39,NNW,336,6.0,16.0,26,0.00,,,0.00,weatherlink.com 1.10,2013-03-10 18:57:00,
2013-03-10 12:12:00,54.3,18.0,30.39,NW,314,7.0,14.0,24,0.00,,,0.00,weatherlink.com 1.10,2013-03-10 19:12:00,
2013-03-10 12:27:00,55.2,18.0,30.39,NNE,30,7.0,13.0,23,0.00,,,0.00,weatherlink.com 1.10,2013-03-10 19:27:00,
2013-03-10 12:42:00,55.3,19.0,30.38,North,1,9.0,16.0,24,0.00,,,0.00,weatherlink.com 1.10,2013-03-10 19:42:00,
2013-03-10 12:57:00,56.0,18.0,30.38,North,360,5.0,14.0,23,0.00,,,0.00,weatherlink.com 1.10,2013-03-10 19:57:00,
2013-03-10 13:12:00,56.5,18.0,30.37,NW,315,8.0,18.0,22,0.00,,,0.00,weatherlink.com 1.10,2013-03-10 20:12:00,
2013-03-10 13:27:00,57.2,18.0,30.36,North,4,6.0,14.0,22,0.00,,,0.00,weatherlink.com 1.10,2013-03-10 20:27:00,
2013-03-10 13:42:00,57.5,20.0,30.35,NW,308,2.0,13.0,23,0.00,,,0.00,weatherlink.com 1.10,2013-03-10 20:42:00,
2013-03-10 13:57:00,58.3,17.0,30.34,SE,131,4.0,9.0,20,0.00,,,0.00,weatherlink.com 1.10,2013-03-10 20:57:00,
2013-03-10 14:12:00,58.7,18.0,30.34,NNE,16,5.0,16.0,20,0.00,,,0.00,weatherlink.com 1.10,2013-03-10 21:12:00,
2013-03-10 14:27:00,59.1,17.0,30.33,NW,314,3.0,9.0,19,0.00,,,0.00,weatherlink.com 1.10,2013-03-10 21:27:00,
2013-03-10 14:42:00,59.1,17.0,30.32,North,6,7.0,13.0,19,0.00,,,0.00,weatherlink.com 1.10,2013-03-10 21:42:00,
2013-03-10 14:57:00,59.3,14.0,30.32,NE,56,5.0,12.0,17,0.00,,,0.00,weatherlink.com 1.10,2013-03-10 21:57:00,
2013-03-10 15:12:00,59.5,16.0,30.31,North,355,6.0,11.0,18,0.00,,,0.00,weatherlink.com 1.10,2013-03-10 22:12:00,
2013-03-10 15:27:00,60.2,14.0,30.31,NE,46,2.0,12.0,16,0.00,,,0.00,weatherlink.com 1.10,2013-03-10 22:27:00,
2013-03-10 15:42:00,60.1,14.0,30.30,NW,314,11.0,15.0,16,0.00,,,0.00,weatherlink.com 1.10,2013-03-10 22:42:00,
2013-03-10 15:57:00,60.2,14.0,30.30,NNW,345,12.0,12.0,16,0.00,,,0.00,weatherlink.com 1.10,2013-03-10 22:57:00,
2013-03-10 16:12:00,60.5,12.0,30.29,NNE,32,7.0,11.0,15,0.00,,,0.00,weatherlink.com 1.10,2013-03-10 23:12:00,
2013-03-10 16:27:00,60.6,15.0,30.29,SE,144,1.0,11.0,17,0.00,,,0.00,weatherlink.com 1.10,2013-03-10 23:27:00,
2013-03-10 16:42:00,60.8,14.0,30.29,NE,47,2.0,9.0,16,0.00,,,0.00,weatherlink.com 1.10,2013-03-10 23:42:00,
2013-03-10 16:57:00,61.1,17.0,30.28,NNW,335,5.0,10.0,18,0.00,,,0.00,weatherlink.com 1.10,2013-03-10 23:57:00,
2013-03-10 17:12:00,60.7,15.0,30.28,NW,308,2.0,8.0,17,0.00,,,0.00,weatherlink.com 1.10,2013-03-11 00:12:00,
2013-03-10 17:27:00,60.4,14.0,30.28,NNW,328,1.0,7.0,16,0.00,,,0.00,weatherlink.com 1.10,2013-03-11 00:27:00,
2013-03-10 17:42:00,60.4,15.0,30.28,NW,313,3.0,6.0,17,0.00,,,0.00,weatherlink.com 1.10,2013-03-11 00:42:00,
2013-03-10 17:57:00,60.0,16.0,30.28,NW,311,2.0,9.0,18,0.00,,,0.00,weatherlink.com 1.10,2013-03-11 00:57:00,
2013-03-10 18:13:00,59.6,16.0,30.28,NNE,16,0.0,3.0,18,0.00,,,0.00,weatherlink.com 1.10,2013-03-11 01:13:00,
2013-03-10 18:28:00,57.2,16.0,30.28,SSE,166,0.0,3.0,20,0.00,,,0.00,weatherlink.com 1.10,2013-03-11 01:28:00,
2013-03-10 18:43:00,54.9,18.0,30.28,WNW,301,1.0,3.0,23,0.00,,,0.00,weatherlink.com 1.10,2013-03-11 01:43:00,
2013-03-10 18:58:00,52.0,19.0,30.28,NW,307,0.0,2.0,27,0.00,,,0.00,weatherlink.com 1.10,2013-03-11 01:58:00,
2013-03-10 19:13:00,49.0,20.0,30.28,WNW,303,2.0,10.0,32,0.00,,,0.00,weatherlink.com 1.10,2013-03-11 02:13:00,
2013-03-10 19:28:00,50.3,21.0,30.28,NW,312,2.0,7.0,32,0.00,,,0.00,weatherlink.com 1.10,2013-03-11 02:28:00,
2013-03-10 19:43:00,49.0,22.0,30.28,NW,325,4.0,8.0,34,0.00,,,0.00,weatherlink.com 1.10,2013-03-11 02:43:00,
2013-03-10 19:58:00,48.9,22.0,30.29,WNW,300,1.0,6.0,35,0.00,,,0.00,weatherlink.com 1.10,2013-03-11 02:58:00,
2013-03-10 20:13:00,48.9,23.0,30.29,NW,304,1.0,7.0,36,0.00,,,0.00,weatherlink.com 1.10,2013-03-11 03:13:00,
2013-03-10 20:28:00,47.6,22.0,30.29,NW,311,0.0,3.0,37,0.00,,,0.00,weatherlink.com 1.10,2013-03-11 03:28:00,
2013-03-10 20:43:00,47.4,22.0,30.29,NNW,345,2.0,4.0,37,0.00,,,0.00,weatherlink.com 1.10,2013-03-11 03:43:00,
2013-03-10 20:58:00,46.9,22.0,30.28,NE,53,2.0,4.0,37,0.00,,,0.00,weatherlink.com 1.10,2013-03-11 03:58:00,
2013-03-10 21:13:00,46.1,21.0,30.29,NNW,336,3.0,5.0,37,0.00,,,0.00,weatherlink.com 1.10,2013-03-11 04:13:00,
2013-03-10 21:28:00,45.8,21.0,30.29,NE,53,1.0,5.0,37,0.00,,,0.00,weatherlink.com 1.10,2013-03-11 04:28:00,
2013-03-10 21:43:00,45.5,21.0,30.29,NNE,27,3.0,5.0,38,0.00,,,0.00,weatherlink.com 1.10,2013-03-11 04:43:00,
2013-03-10 21:58:00,45.6,21.0,30.30,NE,39,2.0,6.0,37,0.00,,,0.00,weatherlink.com 1.10,2013-03-11 04:58:00,
2013-03-10 22:13:00,45.0,21.0,30.30,NW,311,3.0,6.0,38,0.00,,,0.00,weatherlink.com 1.10,2013-03-11 05:13:00,
2013-03-10 22:28:00,45.8,19.0,30.30,NE,37,2.0,8.0,35,0.00,,,0.00,weatherlink.com 1.10,2013-03-11 05:28:00,
2013-03-10 22:43:00,42.8,21.0,30.30,ENE,60,4.0,7.0,42,0.00,,,0.00,weatherlink.com 1.10,2013-03-11 05:43:00,
2013-03-10 22:58:00,40.9,20.0,30.30,NNW,347,3.0,7.0,44,0.00,,,0.00,weatherlink.com 1.10,2013-03-11 05:58:00,
2013-03-10 23:13:00,39.2,21.0,30.30,North,3,2.0,5.0,49,0.00,,,0.00,weatherlink.com 1.10,2013-03-11 06:13:00,
2013-03-10 23:28:00,38.3,20.0,30.30,ENE,75,3.0,7.0,49,0.00,,,0.00,weatherlink.com 1.10,2013-03-11 06:28:00,
2013-03-10 23:43:00,35.1,21.0,30.30,ENE,69,4.0,5.0,58,0.00,,,0.00,weatherlink.com 1.10,2013-03-11 06:43:00,
2013-03-10 23:58:00,34.0,22.0,30.30,East,101,2.0,4.0,61,0.00,,,0.00,weatherlink.com 1.10,2013-03-11 06:58:00,